Spirit of St Louis, MO

9:41 PM CDT on May 26, 2017 (GMT -0500)
Spirit Of Saint Louis

Weather History for KSUS - September, 2013

Change the Weather History Date:

Friday, September 27, 2013

  Actual Average Record
Temperature  
Mean Temperature 68 °F -  
Max Temperature 84 °F 74 °F 89 °F (1998)
Min Temperature 55 °F 47 °F 41 °F (2000)
Cooling Degree Days 4    
Growing Degree Days 18 (Base 50)    
Moisture  
Dew Point 57 °F    
Average Humidity 74    
Maximum Humidity 100    
Minimum Humidity 41    
Precipitation  
Precipitation 0.00 in - - ()
Sea Level Pressure  
Sea Level Pressure 30.03 in    
Wind  
Wind Speed 1 mph (SE)    
Max Wind Speed 9 mph    
Max Gust Speed -    
Visibility 7 miles    
Events Fog    
Averages and records for this station are not official NWS values.
T = Trace of Precipitation, MM = Missing Value Source: NWS Daily Summary

Daily Weather History Graph

Daily Weather History Graph

Search for Another Location

Airport or City:

Trip Planner

Search our weather history database for the weather conditions in past years. The results will help you decide how hot, cold, wet, or windy it might be!

Date:

Astronomy

Sep. 27, 2013 Rise Set
Actual Time 6:55 AM CDT 6:51 PM CDT
Civil Twilight 6:28 AM CDT 7:17 PM CDT
Nautical Twilight 5:57 AM CDT 7:48 PM CDT
Astronomical Twilight 5:26 AM CDT 8:19 PM CDT
Moon No Moon Rise 2:26 PM CDT
Length of Visible Light 12h 49m
Length of Day
11h 56m
Last Quarter, 45% of the Moon is Illuminated
Sep 27
Last Quarter
Oct 4
New
Oct 11
First Quarter
Oct 18
Full
Oct 26
Last Quarter

Hourly Weather History & Observations

Time (CDT) Temp. Heat Index Dew Point Humidity Pressure Visibility Wind Dir Wind Speed Gust Speed Precip Events Conditions
12:54 AM 68.0 °F - 57.0 °F 68% 29.99 in 10.0 mi Calm Calm - N/A   Clear
1:54 AM 61.0 °F - 57.0 °F 87% 30.01 in 9.0 mi Calm Calm - N/A   Clear
2:54 AM 59.0 °F - 57.0 °F 93% 30.01 in 4.0 mi Calm Calm - N/A   Clear
3:54 AM 59.0 °F - 57.0 °F 93% 30.02 in 6.0 mi Calm Calm - N/A   Clear
4:54 AM 57.0 °F - 55.0 °F 93% 30.03 in 3.0 mi Calm Calm - N/A   Clear
5:06 AM 57.2 °F - 55.4 °F 94% 30.05 in 1.5 mi Calm Calm - N/A   Clear
5:14 AM 57.2 °F - 55.4 °F 94% 30.05 in 0.2 mi Calm Calm - N/A Fog Fog
5:24 AM 57.2 °F - 55.4 °F 94% 30.06 in 0.2 mi Calm Calm - N/A Fog Fog
5:29 AM 57.2 °F - 55.4 °F 94% 30.06 in 0.8 mi Calm Calm - N/A   Clear
5:34 AM 57.2 °F - 55.4 °F 94% 30.06 in 0.2 mi Calm Calm - N/A Fog Fog
5:50 AM 57.2 °F - 55.4 °F 94% 30.07 in 0.5 mi Calm Calm - N/A Fog Fog
5:54 AM 57.0 °F - 55.0 °F 93% 30.05 in 0.5 mi Calm Calm - N/A Fog Fog
6:02 AM 55.4 °F - 55.4 °F 100% 30.07 in 4.0 mi Calm Calm - N/A   Clear
6:51 AM 55.4 °F - 55.4 °F 100% 30.09 in 4.0 mi Calm Calm - N/A   Clear
6:54 AM 55.9 °F - 55.0 °F 97% 30.07 in 5.0 mi Calm Calm - N/A Fog Patches of Fog
7:54 AM 59.0 °F - 57.9 °F 96% 30.08 in 5.0 mi Calm Calm - N/A   Scattered Clouds
8:54 AM 68.0 °F - 62.1 °F 81% 30.09 in 9.0 mi Calm Calm - N/A   Scattered Clouds
9:54 AM 75.0 °F - 63.0 °F 66% 30.08 in 10.0 mi Variable 4.6 mph - N/A   Clear
10:54 AM 77.0 °F - 63.0 °F 62% 30.07 in 10.0 mi SSE 9.2 mph - N/A   Partly Cloudy
11:54 AM 79.0 °F - 62.1 °F 56% 30.06 in 10.0 mi Calm Calm - N/A   Scattered Clouds
12:54 PM 80.1 °F 80.9 °F 60.1 °F 50% 30.04 in 10.0 mi SE 9.2 mph - N/A   Mostly Cloudy
1:54 PM 81.0 °F 81.3 °F 59.0 °F 47% 30.01 in 10.0 mi Variable 4.6 mph - N/A   Scattered Clouds
2:54 PM 81.0 °F 81.1 °F 57.9 °F 45% 30.00 in 10.0 mi SE 8.1 mph - N/A   Scattered Clouds
3:54 PM 82.9 °F 82.4 °F 57.0 °F 41% 29.98 in 10.0 mi South 9.2 mph - N/A   Scattered Clouds
4:54 PM 82.9 °F 82.4 °F 57.0 °F 41% 29.98 in 10.0 mi SE 9.2 mph - N/A   Partly Cloudy
5:54 PM 81.0 °F 81.0 °F 57.0 °F 44% 29.98 in 10.0 mi SE 6.9 mph - N/A   Partly Cloudy
6:54 PM 77.0 °F - 57.0 °F 50% 29.98 in 10.0 mi SE 3.5 mph - N/A   Partly Cloudy
7:54 PM 66.9 °F - 59.0 °F 76% 29.99 in 10.0 mi Calm Calm - N/A   Clear
8:54 PM 72.0 °F - 55.9 °F 57% 29.99 in 10.0 mi SE 3.5 mph - N/A   Clear
9:54 PM 71.1 °F - 55.9 °F 59% 29.99 in 10.0 mi SE 3.5 mph - N/A   Clear
10:54 PM 70.0 °F - 55.9 °F 61% 30.00 in 10.0 mi SE 4.6 mph - N/A   Clear
11:54 PM 69.1 °F - 55.9 °F 63% 30.00 in 10.0 mi SSE 3.5 mph - N/A   Clear